This demonstration page uses our WeatherBlox Daily Observations layout. Learn more.

Left ArrowRight Arrow

38.80484, -77.04692

Hourly Observations for February 23, 2016

Temp ( °F °C ) Dew Point ( °F °C ) Humidity (%) Winds ( mph kmh ) Pressure ( in mb ) Visibility ( mi km ) Precip ( " mm )
12:52 am 00:52 Cloudy 44 6.7 35 1.7 71 71 ESE 3 6 30.17 1022 10 16 0.00 0.00
1:52 am 01:52 Cloudy 43 6.1 34 1.1 71 71 SE 3 6 30.18 1022 10 16 0.00 0.00
2:52 am 02:52 Cloudy 43 6.1 35 1.7 74 74 NE 6 9 30.16 1022 10 16 0.00 0.00
3:52 am 03:52 Cloudy 43 6.1 34 1.1 71 71 NE 8 13 30.15 1021 10 16 0.00 0.00
4:52 am 04:52 Cloudy with Light Rain 42 5.6 34 1.1 73 73 NE 9 15 30.16 1021 10 16 0.00 0.03
5:52 am 05:52 Cloudy with Light Rain 41 5 34 1.1 76 76 NE 10 17 30.18 1022 10 16 0.00 0.03
6:29 am 06:29 Cloudy with Light Rain 40 4.4 36 2.2 86 86 NNE 9 15 30.18 1022 5 8 0.03 0.76
6:52 am 06:52 Cloudy with Light Rain 40 4.4 37 2.8 89 89 NNE 12 19 30.19 1022 5 8 0.07 1.78
7:22 am 07:22 Cloudy with Light Rain 39 4 37 3 93 93 NNE 10 17 30.18 1022 4 6 0.00 0.00
7:29 am 07:29 Cloudy with Light Rain 40 4.4 38 3.3 93 93 NNE 9 15 30.18 1022 4 6 0.04 1.02
7:52 am 07:52 Cloudy with Light Rain 40 4.4 38 3.3 93 93 NNE 9 15 30.19 1022 4 6 0.07 1.78
8:52 am 08:52 Cloudy with Light Rain 41 5 38 3.3 89 89 NNE 10 17 30.20 1023 4 6 0.08 2.03
9:52 am 09:52 Cloudy with Light Rain 42 5.6 39 3.9 89 89 NE 12 19 30.19 1022 5 8 0.07 1.78
10:52 am 10:52 Cloudy with Light Rain 43 6.1 40 4.4 89 89 NE 15 24 30.15 1021 6 10 0.02 0.51
11:52 am 11:52 Cloudy with Light Rain 44 6.7 41 5 89 89 NE 14 22 30.11 1020 6 10 0.02 0.51
12:10 pm 12:10 Cloudy with Light Rain 45 7 41 5 87 87 ENE 15 24 30.12 1020 3 5 0.00 0.00
12:15 pm 12:15 Cloudy with Light Rain 44 6.7 41 5 89 89 ENE 12 19 30.12 1020 3 4 0.01 0.25
12:20 pm 12:20 Cloudy with Light Rain 45 7 43 6 93 93 ENE 12 19 30.12 1020 2 3 0.00 0.00
12:30 pm 12:30 Cloudy with Light Rain 43 6 41 5 93 93 NE 12 19 30.12 1020 3 4 0.00 0.00
12:33 pm 12:33 Cloudy with Light Rain 44 6.7 42 5.6 93 93 NE 12 19 30.12 1020 3 5 0.03 0.76
12:39 pm 12:39 Cloudy with Light Rain 43 6.1 42 5.6 97 97 NE 10 17 30.12 1020 2 3 0.03 0.76
12:52 pm 12:52 Cloudy with Light Rain 44 6.7 42 5.6 93 93 NE 9 15 30.10 1019 3 5 0.03 0.76
1:04 pm 13:04 Cloudy with Light Rain 45 7 43 6 93 93 NNE 8 13 30.09 1019 3 4 0.00 0.00
1:10 pm 13:10 Cloudy with Light Rain 45 7 43 6 93 93 NE 10 17 30.09 1019 3 5 0.00 0.00
1:52 pm 13:52 Cloudy with Light Rain 44 6.7 41 5 89 89 NNE 15 24 30.09 1019 3 4 0.03 0.76
2:30 pm 14:30 Cloudy with Light Rain 45 7 43 6 93 93 N 9 15 30.09 1019 2 2 0.00 0.00
2:43 pm 14:43 Cloudy with Light Rain 44 6.7 42 5.6 93 93 NNE 14 22 30.09 1019 2 3 0.08 2.03
2:47 pm 14:47 Cloudy with Light Rain 45 7 43 6 93 93 NNE 13 20 30.09 1019 2 3 0.09 2.29
2:52 pm 14:52 Cloudy with Light Rain 44 6.7 42 5.6 93 93 N 12 19 30.10 1019 2 3 0.09 2.29
2:58 pm 14:58 Cloudy with Light Rain 45 7 43 6 93 93 N 10 17 30.09 1019 3 5 0.00 0.00
3:07 pm 15:07 Cloudy with Light Rain 45 7.2 43 6.1 93 93 NNE 13 20 30.09 1019 3 4 0.00 0.03
3:20 pm 15:20 Cloudy with Light Rain 45 7 43 6 93 93 N 14 22 30.09 1019 2 3 0.00 0.00
3:29 pm 15:29 Cloudy with Light Rain 43 6.1 41 5 93 93 N 15 24 30.09 1019 3 5 0.01 0.25
3:52 pm 15:52 Cloudy with Light Rain 43 6.1 41 5 93 93 N 15 24 30.09 1019 3 5 0.02 0.51
4:06 pm 16:06 Cloudy with Light Rain 45 7 41 5 87 87 N 12 19 30.09 1019 3 4 0.00 0.00
4:09 pm 16:09 Cloudy with Light Rain 44 6.7 41 5 89 89 N 12 19 30.09 1019 3 5 0.00 0.03
4:40 pm 16:40 Cloudy with Light Rain 43 6 41 5 93 93 N 13 20 30.09 1019 3 4 0.00 0.00
4:42 pm 16:42 Cloudy with Light Rain 43 6 41 5 93 93 N 12 19 30.09 1019 3 4 0.00 0.00
4:52 pm 16:52 Cloudy with Light Rain 43 6.1 41 5 93 93 N 14 22 30.09 1019 3 4 0.01 0.25
4:56 pm 16:56 Cloudy with Light Rain 43 6 41 5 93 93 N 13 20 30.09 1019 3 5 0.00 0.00
5:42 pm 17:42 Cloudy with Light Rain 43 6 41 5 93 93 N 10 17 30.09 1019 3 4 0.00 0.00
5:48 pm 17:48 Cloudy with Light Rain 43 6 41 5 93 93 N 10 17 30.09 1019 3 5 0.00 0.00
5:52 pm 17:52 Cloudy with Light Rain 43 6.1 41 5 93 93 N 10 17 30.09 1019 2 2 0.01 0.25
6:35 pm 18:35 Cloudy with Light Rain 44 6.7 42 5.6 93 93 NNE 12 19 30.09 1019 5 8 0.00 0.03
6:52 pm 18:52 Cloudy with Drizzle 44 6.7 42 5.6 93 93 NNE 12 19 30.09 1019 6 10 0.00 0.03
7:21 pm 19:21 Cloudy with Drizzle 44 6.7 42 5.6 93 93 NNE 15 24 30.09 1019 3 5 0.00 0.03
7:47 pm 19:47 Cloudy with Drizzle 45 7 43 6 93 93 NNE 13 20 30.09 1019 4 6 0.00 0.03
7:52 pm 19:52 Cloudy with Drizzle 44 6.7 42 5.6 93 93 NNE 10 17 30.09 1019 4 6 0.00 0.03
8:52 pm 20:52 Cloudy with Drizzle 43 6.1 41 5 93 93 NNE 13 20 30.08 1019 5 8 0.00 0.03
9:52 pm 21:52 Cloudy with Drizzle 43 6.1 41 5 93 93 NNE 12 19 30.07 1018 6 10 0.00 0.03
10:52 pm 22:52 Cloudy with Drizzle 43 6.1 41 5 93 93 NNE 10 17 30.08 1019 4 6 0.00 0.03
11:52 pm 23:52 Cloudy with Drizzle 42 5.6 41 5 96 96 NE 10 17 30.04 1017 3 4 0.00 0.03

Powered by AerisWeather